When you browse on this site, cookies collect data to enhance your experience and personalize the content and advertising you see.
Visit our Privacy Policy to learn more. By continuing to use the site, you agree to this use of cookies and data.
  • In Schweiz
  • Länderverzeichnis
  • Für 7 Tage
  • Wassertemperatur
  • Satellitenkarten
  • Wetterkarte
  • Widgets
  • user-avatar
    Anmelden

    Stündliche Wetter Xuri

    Heute, 18 Juli, Donnerstag

    Zeit Temperatur Niederschläge Wind Luftdruck Luftfeuchtigkeit
    00:00 +28°C° 0 mm 1 m/S 745 mmHg 88%
    01:00 +28°C° 0 mm 1 m/S 744 mmHg 89%
    02:00 +27°C° 0 mm 1 m/S 744 mmHg 90%
    03:00 +27°C° 0 mm 1 m/S 744 mmHg 91%
    04:00 +27°C° 0 mm 1 m/S 744 mmHg 91%
    05:00 +26°C° 0 mm 1 m/S 744 mmHg 92%
    06:00 +27°C° 0 mm 1 m/S 744 mmHg 90%
    07:00 +28°C° 0 mm 1 m/S 744 mmHg 88%
    08:00 +29°C° 0 mm 2 m/S 744 mmHg 85%
    09:00 +31°C° 0 mm 2 m/S 744 mmHg 79%
    10:00 +32°C° 0 mm 2 m/S 744 mmHg 73%
    11:00 +35°C° 0 mm 2 m/S 744 mmHg 67%
    12:00 +36°C° 0 mm 2 m/S 743 mmHg 64%
    13:00 +36°C° 0 mm 2 m/S 742 mmHg 61%
    14:00 +37°C° 0 mm 2 m/S 741 mmHg 59%
    15:00 +37°C° 0 mm 2 m/S 741 mmHg 61%
    16:00 +36°C° 0 mm 2 m/S 741 mmHg 64%
    17:00 +36°C° 0 mm 2 m/S 741 mmHg 67%
    18:00 +33°C° 0 mm 1 m/S 741 mmHg 72%
    19:00 +31°C° 0 mm 1 m/S 741 mmHg 76%
    20:00 +28°C° 0 mm 0 m/S 741 mmHg 81%
    21:00 +27°C° 0 mm 0 m/S 742 mmHg 82%
    22:00 +27°C° 0 mm 0 m/S 742 mmHg 84%
    23:00 +27°C° 0 mm 0 m/S 743 mmHg 85%

    Morgen, 19 Juli, Freitag

    Zeit Temperatur Niederschläge Wind Luftdruck Luftfeuchtigkeit
    00:00 +28°C° 0 mm 1 m/S 742 mmHg 87%
    01:00 +28°C° 0 mm 1 m/S 742 mmHg 88%
    02:00 +28°C° 0 mm 1 m/S 742 mmHg 90%
    03:00 +25°C° 0 mm 0 m/S 742 mmHg 91%
    04:00 +25°C° 0 mm 0 m/S 742 mmHg 92%
    05:00 +25°C° 0 mm 0 m/S 742 mmHg 93%
    06:00 +26°C° 0.1 mm 0 m/S 742 mmHg 89%
    07:00 +29°C° 0.1 mm 1 m/S 743 mmHg 86%
    08:00 +31°C° 0.1 mm 1 m/S 743 mmHg 82%
    09:00 +32°C° 0.3 mm 1 m/S 743 mmHg 77%
    10:00 +33°C° 0.3 mm 1 m/S 743 mmHg 73%
    11:00 +35°C° 0.3 mm 2 m/S 743 mmHg 68%
    12:00 +35°C° 0.4 mm 1 m/S 743 mmHg 66%
    13:00 +35°C° 0.4 mm 1 m/S 742 mmHg 64%
    14:00 +36°C° 0.4 mm 1 m/S 742 mmHg 63%
    15:00 +36°C° 1 mm 1 m/S 742 mmHg 65%
    16:00 +35°C° 1 mm 1 m/S 742 mmHg 68%
    17:00 +35°C° 1 mm 1 m/S 741 mmHg 71%
    18:00 +33°C° 0.2 mm 1 m/S 742 mmHg 75%
    19:00 +32°C° 0.2 mm 1 m/S 743 mmHg 79%
    20:00 +28°C° 0.2 mm 0 m/S 743 mmHg 83%
    21:00 +30°C° 0 mm 1 m/S 743 mmHg 84%
    22:00 +29°C° 0 mm 1 m/S 744 mmHg 86%
    23:00 +29°C° 0 mm 1 m/S 744 mmHg 87%

    übermorgen, 20 Juli, Samstag

    Zeit Temperatur Niederschläge Wind Luftdruck Luftfeuchtigkeit
    00:00 +29°C° 0 mm 1 m/S 744 mmHg 88%
    01:00 +28°C° 0 mm 1 m/S 743 mmHg 89%
    02:00 +28°C° 0 mm 1 m/S 743 mmHg 89%
    03:00 +28°C° 0 mm 1 m/S 743 mmHg 90%
    04:00 +28°C° 0 mm 1 m/S 743 mmHg 91%
    05:00 +27°C° 0 mm 1 m/S 744 mmHg 91%
    06:00 +28°C° 0 mm 1 m/S 744 mmHg 88%
    07:00 +30°C° 0 mm 1 m/S 744 mmHg 85%
    08:00 +31°C° 0 mm 1 m/S 745 mmHg 82%
    09:00 +32°C° 0.1 mm 1 m/S 745 mmHg 77%
    10:00 +34°C° 0.1 mm 1 m/S 745 mmHg 72%
    11:00 +35°C° 0.1 mm 1 m/S 744 mmHg 67%
    12:00 +36°C° 0.2 mm 1 m/S 744 mmHg 64%
    13:00 +37°C° 0.2 mm 1 m/S 743 mmHg 62%
    14:00 +35°C° 0.2 mm 0 m/S 743 mmHg 60%
    15:00 +37°C° 1.2 mm 1 m/S 743 mmHg 65%
    16:00 +36°C° 1.2 mm 1 m/S 743 mmHg 70%
    17:00 +35°C° 1.2 mm 1 m/S 742 mmHg 75%
    18:00 +34°C° 0.9 mm 1 m/S 743 mmHg 78%
    19:00 +30°C° 0.9 mm 0 m/S 743 mmHg 82%
    20:00 +29°C° 0.9 mm 0 m/S 743 mmHg 86%
    21:00 +28°C° 0.1 mm 0 m/S 744 mmHg 87%
    22:00 +30°C° 0.1 mm 1 m/S 744 mmHg 88%
    23:00 +29°C° 0.1 mm 1 m/S 744 mmHg 89%

    21 Juli, Sonntag

    Zeit Temperatur Niederschläge Wind Luftdruck Luftfeuchtigkeit
    00:00 +29°C° 0.2 mm 1 m/S 744 mmHg 89%
    01:00 +27°C° 0.2 mm 0 m/S 744 mmHg 90%
    02:00 +27°C° 0.2 mm 0 m/S 743 mmHg 90%
    03:00 +26°C° 0.3 mm 0 m/S 744 mmHg 91%
    04:00 +26°C° 0.3 mm 0 m/S 744 mmHg 92%
    05:00 +26°C° 0.3 mm 0 m/S 744 mmHg 93%
    06:00 +27°C° 0.2 mm 0 m/S 744 mmHg 90%
    07:00 +28°C° 0.2 mm 0 m/S 744 mmHg 87%
    08:00 +29°C° 0.2 mm 0 m/S 745 mmHg 84%
    09:00 +31°C° 1.4 mm 0 m/S 744 mmHg 79%
    10:00 +32°C° 1.4 mm 0 m/S 744 mmHg 74%
    11:00 +34°C° 1.4 mm 0 m/S 744 mmHg 69%
    12:00 +36°C° 1.2 mm 1 m/S 743 mmHg 68%
    13:00 +36°C° 1.2 mm 1 m/S 743 mmHg 67%
    14:00 +37°C° 1.2 mm 2 m/S 742 mmHg 66%
    15:00 +36°C° 2.8 mm 1 m/S 742 mmHg 72%
    16:00 +35°C° 2.8 mm 1 m/S 742 mmHg 78%
    17:00 +34°C° 2.8 mm 1 m/S 742 mmHg 85%
    18:00 +33°C° 1.8 mm 1 m/S 742 mmHg 86%
    19:00 +31°C° 1.8 mm 1 m/S 743 mmHg 87%
    20:00 +30°C° 1.8 mm 1 m/S 743 mmHg 88%
    21:00 +30°C° 0.4 mm 1 m/S 743 mmHg 89%
    22:00 +30°C° 0.4 mm 1 m/S 744 mmHg 90%
    23:00 +29°C° 0.4 mm 1 m/S 744 mmHg 91%

    22 Juli, Montag

    Zeit Temperatur Niederschläge Wind Luftdruck Luftfeuchtigkeit
    00:00 +29°C° 0.3 mm 1 m/S 744 mmHg 91%
    01:00 +29°C° 0.3 mm 1 m/S 743 mmHg 92%
    02:00 +27°C° 0.3 mm 0 m/S 743 mmHg 92%
    03:00 +26°C° 0 mm 0 m/S 743 mmHg 92%
    04:00 +26°C° 0 mm 0 m/S 743 mmHg 92%
    05:00 +28°C° 0 mm 1 m/S 743 mmHg 92%
    06:00 +27°C° 0 mm 0 m/S 744 mmHg 90%
    07:00 +28°C° 0 mm 0 m/S 744 mmHg 87%
    08:00 +29°C° 0 mm 0 m/S 745 mmHg 85%
    09:00 +32°C° 0.6 mm 1 m/S 744 mmHg 79%
    10:00 +34°C° 0.6 mm 1 m/S 744 mmHg 73%
    11:00 +35°C° 0.6 mm 1 m/S 744 mmHg 68%
    12:00 +36°C° 0.4 mm 1 m/S 743 mmHg 65%
    13:00 +36°C° 0.4 mm 1 m/S 743 mmHg 63%
    14:00 +38°C° 0.4 mm 2 m/S 743 mmHg 60%
    15:00 +37°C° 0.5 mm 2 m/S 743 mmHg 66%
    16:00 +35°C° 0.5 mm 1 m/S 742 mmHg 71%
    17:00 +35°C° 0.5 mm 1 m/S 742 mmHg 77%
    18:00 +33°C° 0.2 mm 1 m/S 742 mmHg 80%
    19:00 +32°C° 0.2 mm 1 m/S 743 mmHg 82%
    20:00 +29°C° 0.2 mm 0 m/S 743 mmHg 85%
    21:00 +28°C° 0.9 mm 0 m/S 743 mmHg 86%
    22:00 +30°C° 0.9 mm 1 m/S 744 mmHg 87%
    23:00 +30°C° 0.9 mm 1 m/S 744 mmHg 88%

    23 Juli, Dienstag

    Zeit Temperatur Niederschläge Wind Luftdruck Luftfeuchtigkeit
    00:00 +29°C° 0.3 mm 1 m/S 744 mmHg 89%
    01:00 +29°C° 0.3 mm 1 m/S 744 mmHg 89%
    02:00 +29°C° 0.3 mm 1 m/S 743 mmHg 90%
    03:00 +29°C° 0 mm 1 m/S 743 mmHg 90%
    04:00 +29°C° 0 mm 1 m/S 743 mmHg 90%
    05:00 +28°C° 0 mm 1 m/S 743 mmHg 90%
    06:00 +30°C° 0 mm 1 m/S 744 mmHg 88%
    07:00 +31°C° 0 mm 1 m/S 744 mmHg 85%
    08:00 +32°C° 0 mm 1 m/S 744 mmHg 82%
    09:00 +33°C° 0.2 mm 1 m/S 744 mmHg 75%
    10:00 +35°C° 0.2 mm 1 m/S 744 mmHg 68%
    11:00 +36°C° 0.2 mm 1 m/S 744 mmHg 61%
    12:00 +36°C° 0.3 mm 1 m/S 744 mmHg 60%
    13:00 +38°C° 0.3 mm 2 m/S 743 mmHg 60%
    14:00 +38°C° 0.3 mm 2 m/S 743 mmHg 59%
    15:00 +37°C° 0.4 mm 2 m/S 743 mmHg 64%
    16:00 +37°C° 0.4 mm 2 m/S 743 mmHg 69%
    17:00 +36°C° 0.4 mm 2 m/S 742 mmHg 74%
    18:00 +34°C° 0.2 mm 1 m/S 743 mmHg 77%
    19:00 +32°C° 0.2 mm 1 m/S 744 mmHg 80%
    20:00 +29°C° 0.2 mm 0 m/S 744 mmHg 83%
    21:00 +28°C° 0 mm 0 m/S 744 mmHg 84%
    22:00 +30°C° 0 mm 1 m/S 744 mmHg 85%
    23:00 +30°C° 0 mm 1 m/S 745 mmHg 85%
    Mehr zeigen